Location: Newark
(39.6867°N, 100.6772°W)
Time: 11:22:13
(UTC+00:00)

Vanguard 1 Rocket - Pass Details

Date: 25 October 2019
Orbit: 651 x 4226 km, 34.3° (Epoch: 17 November)

Event Time Altitude Azimuth Distance (km) Brightness Sun altitude
Rises 21:16:19 0° 282° (WNW) 6,751 12.3 24.9°
Reaches altitude 10° 21:20:19 10° 278° (W) 6,114 12.3 24.3°
Maximum altitude 21:40:47 53° 210° (SSW) 4,699 12.1 21.3°
Drops below altitude 10° 22:04:59 10° 142° (SE) 7,021 11.9 17.5°
Sets 22:10:07 0° 137° (SE) 7,752 12.0 16.7°
